User: anonymous   Login
Location: Huntington Beach
(33.6600°N, 117.9980°W)
Time: 18:50:08
(UTC-07:00)
Language:

Hubble Space Telescope - Orbit

View from above orbital plane
View from above orbital plane
View from above satellite
View from above satellite

Ground track
Ground track

The orbit data is extracted from the following two-line orbital elements,

1 20580U 90037B   16244.07732953  .00000818  00000-0  39976-4 0  9992
2 20580  28.4696 124.1257 0002617 294.8530 210.1217 15.08469990246435
Epoch (UTC): 31 August 2016 01:51:21
Eccentricity: 0.0002617
inclination: 28.4696°
perigee height: 539 km
apogee height: 542 km
right ascension of ascending node: 124.1257°
argument of perigee: 294.8530°
revolutions per day: 15.08469990
mean anomaly at epoch: 210.1217°
orbit number at epoch: 24643

The dashed part of the orbit path shows where the satellite is in the earth's shadow,  

DLR